TimeMDT,TemperatureF,Dew PointF,Humidity,Sea Level PressureIn,VisibilityMPH,Wind Direction,Wind SpeedMPH,Gust SpeedMPH,PrecipitationIn,Events,Conditions,WindDirDegrees,DateUTC
12:53 AM,33.1,28.9,85,30.22,10.0,SSW,6.9,-,N/A,,Clear,210,2012-10-15 06:53:00
1:53 AM,35.1,28.9,78,30.17,10.0,SSW,4.6,-,N/A,,Clear,200,2012-10-15 07:53:00
2:53 AM,33.1,28.0,82,30.18,10.0,SW,5.8,-,N/A,,Clear,220,2012-10-15 08:53:00
3:53 AM,30.9,27.0,85,30.16,10.0,SSW,5.8,-,N/A,,Clear,210,2012-10-15 09:53:00
4:53 AM,30.9,26.1,82,30.16,10.0,Calm,Calm,-,N/A,,Clear,0,2012-10-15 10:53:00
5:53 AM,30.0,25.0,82,30.18,10.0,South,6.9,-,N/A,,Clear,190,2012-10-15 11:53:00
6:53 AM,27.0,24.1,89,30.19,10.0,Calm,Calm,-,N/A,,Clear,0,2012-10-15 12:53:00
7:53 AM,28.9,24.1,82,30.22,10.0,South,4.6,-,N/A,,Clear,190,2012-10-15 13:53:00
8:53 AM,37.9,27.0,65,30.20,10.0,Calm,Calm,-,N/A,,Clear,0,2012-10-15 14:53:00
9:53 AM,43.0,25.0,49,30.17,10.0,SSE,4.6,-,N/A,,Clear,160,2012-10-15 15:53:00
10:53 AM,50.0,25.0,38,30.13,10.0,Calm,Calm,-,N/A,,Clear,0,2012-10-15 16:53:00
11:53 AM,57.0,25.0,29,30.07,10.0,NNE,4.6,-,N/A,,Clear,30,2012-10-15 17:53:00
12:53 PM,60.1,21.9,23,30.03,10.0,NNW,9.2,-,N/A,,Clear,340,2012-10-15 18:53:00
1:53 PM,62.1,25.0,24,29.97,10.0,North,13.8,18.4,N/A,,Clear,10,2012-10-15 19:53:00
2:53 PM,62.1,28.9,29,29.97,10.0,NNW,11.5,18.4,N/A,,Clear,340,2012-10-15 20:53:00
3:53 PM,61.0,28.9,30,29.98,10.0,North,13.8,-,N/A,,Clear,350,2012-10-15 21:53:00
4:53 PM,62.1,28.9,29,29.95,10.0,North,8.1,-,N/A,,Clear,360,2012-10-15 22:53:00
5:53 PM,57.0,26.1,30,29.97,10.0,NNW,5.8,-,N/A,,Clear,340,2012-10-15 23:53:00
6:53 PM,50.0,30.0,46,30.02,10.0,Calm,Calm,-,N/A,,Clear,0,2012-10-16 00:53:00
7:53 PM,46.9,28.9,50,30.05,10.0,SSW,8.1,-,N/A,,Clear,210,2012-10-16 01:53:00
8:53 PM,42.1,28.9,60,30.04,10.0,SSW,4.6,-,N/A,,Clear,200,2012-10-16 02:53:00
9:53 PM,37.9,28.9,70,30.04,10.0,South,5.8,-,N/A,,Clear,190,2012-10-16 03:53:00
10:53 PM,37.0,28.0,70,30.00,10.0,SSW,8.1,-,N/A,,Clear,210,2012-10-16 04:53:00
11:53 PM,36.0,27.0,70,29.98,10.0,SW,6.9,-,N/A,,Clear,220,2012-10-16 05:53:00